Hourly Weather Almancil

Today, 27 February, Saturday

Time Temperature Precipitation Wind Pressure Humidity
00:00 +12°C° 0 mm 2 mps 763 mmHg 92%
01:00 +12°C° 0 mm 2 mps 762 mmHg 92%
02:00 +12°C° 0 mm 2 mps 762 mmHg 93%
03:00 +12°C° 0 mm 2 mps 762 mmHg 92%
04:00 +12°C° 0 mm 2 mps 762 mmHg 91%
05:00 +10°C° 0 mm 2 mps 761 mmHg 93%
06:00 +13°C° 0 mm 2 mps 762 mmHg 89%
07:00 +14°C° 0 mm 2 mps 762 mmHg 86%
08:00 +15°C° 0 mm 2 mps 762 mmHg 82%
09:00 +16°C° 0 mm 2 mps 762 mmHg 75%
10:00 +17°C° 0 mm 3 mps 762 mmHg 67%
11:00 +19°C° 0 mm 3 mps 762 mmHg 60%
12:00 +19°C° 0 mm 3 mps 761 mmHg 59%
13:00 +19°C° 0 mm 3 mps 761 mmHg 59%
14:00 +19°C° 0 mm 3 mps 760 mmHg 58%
15:00 +18°C° 0 mm 2 mps 760 mmHg 66%
16:00 +18°C° 0 mm 1 mps 759 mmHg 74%
17:00 +15°C° 0 mm 1 mps 759 mmHg 82%
18:00 +15°C° 0 mm 1 mps 759 mmHg 84%
19:00 +14°C° 0 mm 1 mps 760 mmHg 87%
20:00 +13°C° 0 mm 1 mps 760 mmHg 90%
21:00 +13°C° 0 mm 1 mps 760 mmHg 90%
22:00 +13°C° 0 mm 1 mps 759 mmHg 89%
23:00 +13°C° 0 mm 1 mps 759 mmHg 89%

Tomorrow, 28 February, Sunday

Time Temperature Precipitation Wind Pressure Humidity
00:00 +13°C° 0 mm 1 mps 759 mmHg 89%
01:00 +12°C° 0 mm 1 mps 758 mmHg 89%
02:00 +12°C° 0 mm 1 mps 758 mmHg 89%
03:00 +12°C° 0 mm 1 mps 758 mmHg 90%
04:00 +12°C° 0 mm 1 mps 758 mmHg 91%
05:00 +12°C° 0 mm 2 mps 758 mmHg 91%
06:00 +12°C° 0 mm 2 mps 758 mmHg 89%
07:00 +12°C° 0 mm 3 mps 758 mmHg 87%
08:00 +13°C° 0 mm 3 mps 758 mmHg 85%
09:00 +14°C° 0 mm 4 mps 758 mmHg 79%
10:00 +15°C° 0 mm 5 mps 758 mmHg 74%
11:00 +17°C° 0 mm 6 mps 758 mmHg 69%
12:00 +17°C° 0 mm 6 mps 757 mmHg 68%
13:00 +17°C° 0 mm 5 mps 757 mmHg 66%
14:00 +17°C° 0 mm 5 mps 756 mmHg 65%
15:00 +17°C° 0 mm 4 mps 756 mmHg 69%
16:00 +16°C° 0 mm 3 mps 756 mmHg 73%
17:00 +15°C° 0 mm 2 mps 756 mmHg 77%
18:00 +15°C° 0 mm 2 mps 757 mmHg 79%
19:00 +14°C° 0 mm 2 mps 757 mmHg 81%
20:00 +13°C° 0 mm 2 mps 757 mmHg 83%
21:00 +12°C° 0 mm 3 mps 757 mmHg 86%
22:00 +11°C° 0 mm 3 mps 757 mmHg 88%
23:00 +11°C° 0 mm 4 mps 757 mmHg 90%

Day after tomorrow, 1 March, Monday

Time Temperature Precipitation Wind Pressure Humidity
00:00 +11°C° 0 mm 4 mps 757 mmHg 91%
01:00 +11°C° 0 mm 4 mps 757 mmHg 92%
02:00 +11°C° 0 mm 4 mps 757 mmHg 92%
03:00 +10°C° 0 mm 4 mps 757 mmHg 93%
04:00 +10°C° 0 mm 4 mps 757 mmHg 93%
05:00 +10°C° 0 mm 3 mps 757 mmHg 93%
06:00 +11°C° 0 mm 3 mps 757 mmHg 89%
07:00 +12°C° 0 mm 4 mps 758 mmHg 86%
08:00 +13°C° 0 mm 4 mps 758 mmHg 82%
09:00 +15°C° 0 mm 4 mps 758 mmHg 74%
10:00 +18°C° 0 mm 4 mps 758 mmHg 66%
11:00 +19°C° 0 mm 4 mps 759 mmHg 57%
12:00 +20°C° 0 mm 3 mps 758 mmHg 58%
13:00 +20°C° 0 mm 3 mps 758 mmHg 58%
14:00 +20°C° 0 mm 2 mps 758 mmHg 58%
15:00 +19°C° 0 mm 2 mps 758 mmHg 65%
16:00 +18°C° 0 mm 1 mps 758 mmHg 72%
17:00 +16°C° 0 mm 1 mps 759 mmHg 80%
18:00 +15°C° 0 mm 2 mps 759 mmHg 82%
19:00 +15°C° 0 mm 2 mps 760 mmHg 85%
20:00 +13°C° 0 mm 3 mps 761 mmHg 88%
21:00 +14°C° 0 mm 2 mps 761 mmHg 89%
22:00 +13°C° 0 mm 2 mps 761 mmHg 90%
23:00 +13°C° 0 mm 2 mps 761 mmHg 91%

2 March, Tuesday

Time Temperature Precipitation Wind Pressure Humidity
00:00 +13°C° 0 mm 2 mps 761 mmHg 92%
01:00 +12°C° 0 mm 2 mps 761 mmHg 93%
02:00 +12°C° 0 mm 2 mps 761 mmHg 94%
03:00 +12°C° 0 mm 2 mps 761 mmHg 95%
04:00 +10°C° 0 mm 2 mps 761 mmHg 95%
05:00 +10°C° 0 mm 2 mps 761 mmHg 95%
06:00 +12°C° 0 mm 2 mps 762 mmHg 91%
07:00 +14°C° 0 mm 2 mps 762 mmHg 87%
08:00 +15°C° 0 mm 2 mps 763 mmHg 83%
09:00 +17°C° 0 mm 2 mps 763 mmHg 75%
10:00 +18°C° 0 mm 2 mps 763 mmHg 68%
11:00 +20°C° 0 mm 2 mps 763 mmHg 60%
12:00 +21°C° 0 mm 2 mps 763 mmHg 59%
13:00 +21°C° 0 mm 2 mps 763 mmHg 57%
14:00 +23°C° 0 mm 2 mps 763 mmHg 55%
15:00 +21°C° 0 mm 1 mps 763 mmHg 64%
16:00 +20°C° 0 mm 1 mps 763 mmHg 72%
17:00 +16°C° 0 mm 0 mps 762 mmHg 80%
18:00 +16°C° 0 mm 1 mps 763 mmHg 82%
19:00 +15°C° 0 mm 1 mps 763 mmHg 84%
20:00 +14°C° 0 mm 1 mps 764 mmHg 86%
21:00 +14°C° 0 mm 1 mps 764 mmHg 87%
22:00 +14°C° 0 mm 1 mps 764 mmHg 87%
23:00 +14°C° 0 mm 1 mps 764 mmHg 88%

3 March, Wednesday

Time Temperature Precipitation Wind Pressure Humidity
00:00 +13°C° 0 mm 1 mps 764 mmHg 89%
01:00 +13°C° 0 mm 2 mps 763 mmHg 89%
02:00 +13°C° 0 mm 2 mps 763 mmHg 89%
03:00 +13°C° 0 mm 2 mps 763 mmHg 90%
04:00 +12°C° 0 mm 2 mps 763 mmHg 91%
05:00 +11°C° 0 mm 3 mps 763 mmHg 92%
06:00 +12°C° 0 mm 3 mps 763 mmHg 89%
07:00 +14°C° 0 mm 4 mps 764 mmHg 86%
08:00 +15°C° 0 mm 4 mps 764 mmHg 83%
09:00 +16°C° 0 mm 5 mps 764 mmHg 74%
10:00 +19°C° 0 mm 6 mps 764 mmHg 65%
11:00 +20°C° 0 mm 6 mps 764 mmHg 56%
12:00 +20°C° 0 mm 6 mps 763 mmHg 57%
13:00 +20°C° 0 mm 7 mps 763 mmHg 58%
14:00 +20°C° 0 mm 7 mps 762 mmHg 59%
15:00 +19°C° 0 mm 6 mps 762 mmHg 65%
16:00 +16°C° 0 mm 6 mps 762 mmHg 70%
17:00 +15°C° 0 mm 6 mps 762 mmHg 76%
18:00 +14°C° 0 mm 6 mps 762 mmHg 80%
19:00 +13°C° 0 mm 6 mps 762 mmHg 84%
20:00 +13°C° 0 mm 6 mps 762 mmHg 88%
21:00 +12°C° 0 mm 7 mps 761 mmHg 84%
22:00 +12°C° 0 mm 8 mps 761 mmHg 80%
23:00 +12°C° 0 mm 9 mps 761 mmHg 76%

4 March, Thursday

Time Temperature Precipitation Wind Pressure Humidity
00:00 +12°C° 0 mm 9 mps 760 mmHg 75%
01:00 +12°C° 0 mm 9 mps 760 mmHg 74%
02:00 +12°C° 0 mm 9 mps 760 mmHg 73%
03:00 +11°C° 0 mm 8 mps 759 mmHg 76%
04:00 +11°C° 0 mm 8 mps 759 mmHg 78%
05:00 +10°C° 0 mm 8 mps 759 mmHg 81%
06:00 +11°C° 0 mm 8 mps 758 mmHg 79%
07:00 +12°C° 0 mm 8 mps 758 mmHg 78%
08:00 +13°C° 0 mm 9 mps 758 mmHg 76%
09:00 +13°C° 0 mm 9 mps 758 mmHg 72%
10:00 +15°C° 0 mm 9 mps 758 mmHg 69%
11:00 +16°C° 0 mm 10 mps 758 mmHg 65%
12:00 +16°C° 0 mm 10 mps 757 mmHg 64%
13:00 +17°C° 0 mm 10 mps 757 mmHg 64%
14:00 +17°C° 0 mm 10 mps 756 mmHg 63%
15:00 +16°C° 0 mm 9 mps 756 mmHg 67%
16:00 +15°C° 0 mm 8 mps 756 mmHg 71%
17:00 +13°C° 0 mm 8 mps 756 mmHg 76%
18:00 +13°C° 0 mm 8 mps 757 mmHg 78%
19:00 +12°C° 0 mm 7 mps 757 mmHg 81%
20:00 +11°C° 0 mm 7 mps 757 mmHg 83%
21:00 +11°C° 0 mm 7 mps 757 mmHg 84%
22:00 +11°C° 0 mm 7 mps 758 mmHg 85%
23:00 +10°C° 0 mm 6 mps 758 mmHg 85%
Show more

We Need Your Consent

Meteoprog and our Service Providers may store and access personal data such as cookies, device identifiers or other similar technologies on your device and process such data to personalise content and ads, as well as provide social media features and to analyse the traffic.

  • Store and/or access information on your device

    Cookies, device identifiers or other information can be stored or accessed on your device for the purposes indicated above.

  • Personalised ads and content, ad and content measurement, audience insights, and products development

    Ads and content can be personalised based on a profile. More data can be added to better personalise ads and content. Ad and content performance can be measured. Insights about the audience who saw the ads and content can be derived. Such data can be used to develop or improve user’s experience, systems and software.

By clicking ‘I Agree’ you will allow the use of indicated cookies, device identifiers, web beacons or other similar technologies. Your settings can be changed in the browser on your device.

For certain purposes, legitimate interests may be relied on, rather than consent. You can read more about this in our Privacy and Cookie Policy.